﻿TIME_UTC_SECONDS;TIME_UTC_STR;AIR_TEMP;TRACK_TEMP;HUMIDITY;PRESSURE;WIND_SPEED;WIND_DIRECTION;
1507293002;06-Oct-17 12:30:02;59.9;66.00002;87;30.140191866;0;25;
1507293012;06-Oct-17 12:30:12;59.9;66.00002;87;30.140191866;0;25;
1507293022;06-Oct-17 12:30:22;59.9;66.00002;87;30.140191866;0;25;
1507293032;06-Oct-17 12:30:32;59.9;66.00002;87;30.140191866;0;25;
1507293042;06-Oct-17 12:30:42;59.9;66.00002;87;30.140191866;0;25;
1507293052;06-Oct-17 12:30:52;59.9;66.00002;87;30.140191866;0;25;
1507293062;06-Oct-17 12:31:02;59.9;66.00002;87;30.141077769;0;25;
1507293072;06-Oct-17 12:31:12;59.9;66.00002;87;30.141077769;0;25;
1507293082;06-Oct-17 12:31:22;59.9;66.00002;87;30.141077769;0;25;
1507293092;06-Oct-17 12:31:32;60.00008;66.00002;87;30.141077769;0;25;
1507293102;06-Oct-17 12:31:42;60.00008;66.00002;87;30.141077769;0;25;
1507293112;06-Oct-17 12:31:52;60.00008;66.00002;87;30.141077769;0;25;
1507293122;06-Oct-17 12:32:02;60.00008;66.00002;87;30.142258973;0;25;
1507293132;06-Oct-17 12:32:12;60.00008;66.00002;87;30.142258973;0;25;
1507293142;06-Oct-17 12:32:22;60.00008;66.00002;87;30.142258973;0;25;
1507293152;06-Oct-17 12:32:32;59.9;66.00002;87;30.142258973;0;25;
1507293162;06-Oct-17 12:32:42;60.00008;66.00002;87;30.142258973;0;25;
1507293172;06-Oct-17 12:32:52;60.00008;66.00002;87;30.142258973;0;25;
1507293182;06-Oct-17 12:33:02;60.00008;66.00002;87;30.141077769;0;25;
1507293192;06-Oct-17 12:33:12;60.00008;66.00002;87;30.141077769;0;25;
1507293202;06-Oct-17 12:33:22;60.00008;66.00002;87;30.141077769;0;25;
1507293212;06-Oct-17 12:33:32;60.00008;66.00002;87;30.141077769;0;25;
1507293222;06-Oct-17 12:33:42;60.00008;66.00002;87;30.141077769;0;25;
1507293232;06-Oct-17 12:33:52;60.00008;66.00002;87;30.141077769;0;25;
1507293242;06-Oct-17 12:34:02;60.09998;66.00002;87;30.141077769;0;25;
1507293252;06-Oct-17 12:34:12;60.00008;66.00002;87;30.141077769;0;25;
1507293262;06-Oct-17 12:34:22;60.09998;66.00002;87;30.141077769;0;25;
1507293272;06-Oct-17 12:34:32;60.00008;66.00002;87;30.141077769;0;25;
1507293282;06-Oct-17 12:34:42;60.00008;66.00002;87;30.141077769;0;25;
1507293292;06-Oct-17 12:34:52;60.00008;66.00002;87;30.141077769;0;25;
1507293312;06-Oct-17 12:35:12;60.09998;66.00002;87;30.139010662;0;25;
1507293322;06-Oct-17 12:35:22;60.00008;66.00002;87;30.139010662;0;25;
1507293332;06-Oct-17 12:35:32;60.00008;66.00002;87;30.139010662;0;25;
1507293342;06-Oct-17 12:35:42;60.09998;66.00002;87;30.139010662;0;25;
1507293352;06-Oct-17 12:35:52;60.09998;66.00002;87;30.139010662;0;25;
1507293362;06-Oct-17 12:36:02;60.09998;66.00002;87;30.140191866;0;25;
1507293372;06-Oct-17 12:36:12;60.00008;66.00002;87;30.140191866;0;25;
1507293382;06-Oct-17 12:36:22;60.09998;66.00002;87;30.140191866;0;25;
1507293392;06-Oct-17 12:36:32;60.09998;66.00002;87;30.140191866;0;25;
1507293402;06-Oct-17 12:36:42;60.09998;66.00002;87;30.140191866;0;25;
1507293412;06-Oct-17 12:36:52;60.09998;66.00002;87;30.140191866;0;25;
1507293423;06-Oct-17 12:37:03;60.09998;66.00002;87;30.142258973;0;25;
1507293433;06-Oct-17 12:37:13;60.09998;66.00002;87;30.142258973;0;25;
1507293443;06-Oct-17 12:37:23;60.09998;66.00002;87;30.142258973;0;25;
1507293453;06-Oct-17 12:37:33;60.09998;66.99992;87;30.142258973;0;25;
1507293473;06-Oct-17 12:37:53;60.09998;66.99992;87;30.142258973;0;25;
1507293483;06-Oct-17 12:38:03;60.09998;66.99992;87;30.141077769;0;25;
1507293493;06-Oct-17 12:38:13;60.09998;66.99992;87;30.141077769;0;25;
1507293503;06-Oct-17 12:38:23;60.09998;66.99992;87;30.141077769;0;25;
1507293513;06-Oct-17 12:38:33;60.09998;66.99992;87;30.141077769;0;25;
1507293523;06-Oct-17 12:38:43;60.09998;66.99992;87;30.141077769;0;25;
1507293533;06-Oct-17 12:38:53;60.09998;66.99992;87;30.141077769;0;25;
1507293543;06-Oct-17 12:39:03;60.20006;66.99992;87;30.141077769;0;25;
1507293553;06-Oct-17 12:39:13;60.20006;66.99992;87;30.141077769;0;25;
1507293563;06-Oct-17 12:39:23;60.20006;66.99992;87;30.141077769;0;25;
1507293573;06-Oct-17 12:39:33;60.20006;66.99992;87;30.141077769;0;25;
1507293583;06-Oct-17 12:39:43;60.20006;66.99992;87;30.141077769;0;25;
1507293593;06-Oct-17 12:39:53;60.20006;66.99992;87;30.141077769;0;25;
1507293603;06-Oct-17 12:40:03;60.20006;66.99992;87;30.142258973;0;25;
1507293613;06-Oct-17 12:40:13;60.20006;66.99992;87;30.142258973;0;25;
1507293623;06-Oct-17 12:40:23;60.29996;66.99992;87;30.142258973;0;25;
1507293633;06-Oct-17 12:40:33;60.20006;66.99992;87;30.142258973;0;25;
1507293643;06-Oct-17 12:40:43;60.20006;66.99992;87;30.142258973;0;25;
1507293653;06-Oct-17 12:40:53;60.20006;66.99992;87;30.142258973;0;25;
1507293663;06-Oct-17 12:41:03;60.29996;66.99992;87;30.143144876;0;25;
1507293673;06-Oct-17 12:41:13;60.29996;66.99992;87;30.143144876;0;25;
1507293683;06-Oct-17 12:41:23;60.29996;66.99992;87;30.143144876;0;25;
1507293693;06-Oct-17 12:41:33;60.29996;66.99992;87;30.143144876;0;25;
1507293703;06-Oct-17 12:41:43;60.29996;66.99992;87;30.143144876;0;25;
1507293713;06-Oct-17 12:41:53;60.40004;66.99992;87;30.143144876;0;25;
1507293723;06-Oct-17 12:42:03;60.40004;66.99992;87;30.143144876;0;25;
1507293733;06-Oct-17 12:42:13;60.29996;68;87;30.143144876;0;25;
1507293743;06-Oct-17 12:42:23;60.40004;68;87;30.143144876;0;25;
1507293753;06-Oct-17 12:42:33;60.40004;68;87;30.143144876;0;25;
1507293763;06-Oct-17 12:42:43;60.40004;68;87;30.143144876;0;25;
1507293773;06-Oct-17 12:42:53;60.40004;68;87;30.143144876;0;25;
1507293783;06-Oct-17 12:43:03;60.40004;68;87;30.142258973;0;25;
1507293793;06-Oct-17 12:43:13;60.40004;68;87;30.142258973;0;25;
1507293803;06-Oct-17 12:43:23;60.40004;68;87;30.142258973;0;25;
1507293813;06-Oct-17 12:43:33;60.40004;68;87;30.142258973;0;25;
1507293823;06-Oct-17 12:43:43;60.49994;68;87;30.142258973;0;25;
1507293833;06-Oct-17 12:43:53;60.40004;68;87;30.142258973;0;25;
1507293843;06-Oct-17 12:44:03;60.49994;68;87;30.143144876;0;25;
1507293853;06-Oct-17 12:44:13;60.49994;68;87;30.143144876;0;25;
1507293863;06-Oct-17 12:44:23;60.49994;68;87;30.143144876;0;25;
1507293873;06-Oct-17 12:44:33;60.49994;68;87;30.143144876;0;25;
1507293883;06-Oct-17 12:44:43;60.49994;68;87;30.143144876;0;25;
1507293893;06-Oct-17 12:44:53;60.49994;68;87;30.143144876;0;25;
1507293903;06-Oct-17 12:45:03;60.60002;68;87;30.142258973;0;25;
1507293913;06-Oct-17 12:45:13;60.49994;68;87;30.142258973;0;25;
1507293923;06-Oct-17 12:45:23;60.60002;68;87;30.142258973;0;25;
1507293933;06-Oct-17 12:45:33;60.49994;68;87;30.142258973;0;25;
1507293943;06-Oct-17 12:45:43;60.60002;68;87;30.142258973;0;25;
1507293953;06-Oct-17 12:45:53;60.60002;68;87;30.142258973;0;25;
1507293963;06-Oct-17 12:46:03;60.60002;68;87;30.143144876;0;25;
1507293973;06-Oct-17 12:46:13;60.60002;68;87;30.143144876;0;25;
1507293983;06-Oct-17 12:46:23;60.69992;68;87;30.143144876;0;25;
1507293993;06-Oct-17 12:46:33;60.69992;68;87;30.143144876;0;25;
1507294003;06-Oct-17 12:46:43;60.60002;68;87;30.143144876;0;25;
1507294013;06-Oct-17 12:46:53;60.69992;68;87;30.143144876;0;25;
1507294023;06-Oct-17 12:47:03;60.69992;68;87;30.143144876;0;25;
1507294033;06-Oct-17 12:47:13;60.69992;68;87;30.143144876;0;25;
1507294043;06-Oct-17 12:47:23;60.69992;69.00008;87;30.143144876;0;25;
1507294053;06-Oct-17 12:47:33;60.69992;69.00008;87;30.143144876;0;25;
1507294063;06-Oct-17 12:47:43;60.8;69.00008;87;30.143144876;0;25;
1507294073;06-Oct-17 12:47:53;60.8;69.00008;86;30.143144876;0;25;
1507294084;06-Oct-17 12:48:04;60.8;69.00008;86;30.144030779;0;25;
1507294094;06-Oct-17 12:48:14;60.8;69.00008;86;30.144030779;0;25;
1507294104;06-Oct-17 12:48:24;60.8;69.00008;86;30.144030779;0;25;
1507294114;06-Oct-17 12:48:34;60.90008;69.00008;86;30.144030779;0;25;
1507294124;06-Oct-17 12:48:44;60.90008;69.00008;86;30.144030779;0;25;
1507294144;06-Oct-17 12:49:04;60.90008;69.00008;86;30.143144876;0;25;
1507294154;06-Oct-17 12:49:14;60.90008;69.00008;86;30.143144876;0;25;
1507294164;06-Oct-17 12:49:24;60.90008;69.00008;86;30.143144876;0;25;
1507294174;06-Oct-17 12:49:34;60.90008;69.00008;86;30.143144876;0;25;
1507294184;06-Oct-17 12:49:44;60.90008;69.00008;86;30.143144876;0;25;
1507294194;06-Oct-17 12:49:54;60.99998;69.00008;86;30.143144876;0;25;
1507294204;06-Oct-17 12:50:04;60.99998;69.00008;86;30.143144876;0;25;
1507294214;06-Oct-17 12:50:14;60.99998;69.00008;86;30.143144876;0;25;
1507294224;06-Oct-17 12:50:24;61.10006;69.00008;86;30.143144876;0;25;
1507294234;06-Oct-17 12:50:34;61.10006;69.00008;86;30.143144876;0;25;
1507294244;06-Oct-17 12:50:44;61.10006;69.00008;86;30.143144876;0;25;
1507294254;06-Oct-17 12:50:54;61.10006;69.00008;86;30.143144876;0;25;
1507294264;06-Oct-17 12:51:04;61.10006;69.00008;86;30.143144876;0;25;
1507294274;06-Oct-17 12:51:14;61.19996;69.00008;86;30.143144876;0;25;
1507294284;06-Oct-17 12:51:24;61.10006;69.00008;86;30.143144876;0;25;
1507294294;06-Oct-17 12:51:34;61.10006;69.00008;86;30.143144876;0;25;
1507294304;06-Oct-17 12:51:44;61.19996;69.00008;86;30.143144876;0;25;
1507294314;06-Oct-17 12:51:54;61.19996;69.00008;86;30.143144876;0;25;
1507294324;06-Oct-17 12:52:04;61.19996;69.00008;86;30.142258973;0;25;
1507294334;06-Oct-17 12:52:14;61.19996;69.00008;86;30.142258973;0;25;
1507294344;06-Oct-17 12:52:24;61.30004;69.00008;86;30.142258973;0;25;
1507294354;06-Oct-17 12:52:34;61.30004;69.00008;86;30.142258973;0;25;
1507294364;06-Oct-17 12:52:44;61.19996;69.99998;86;30.142258973;0;25;
1507294374;06-Oct-17 12:52:54;61.30004;69.99998;86;30.142258973;0;25;
1507294384;06-Oct-17 12:53:04;61.30004;69.99998;86;30.143144876;0;25;
1507294394;06-Oct-17 12:53:14;61.30004;69.99998;86;30.143144876;0;25;
1507294404;06-Oct-17 12:53:24;61.30004;69.99998;86;30.143144876;0;25;
1507294414;06-Oct-17 12:53:34;61.30004;69.99998;86;30.143144876;0;25;
1507294424;06-Oct-17 12:53:44;61.39994;69.99998;86;30.143144876;0;25;
1507294434;06-Oct-17 12:53:54;61.39994;69.99998;86;30.143144876;0;25;
1507294444;06-Oct-17 12:54:04;61.50002;69.99998;86;30.142258973;0;25;
1507294454;06-Oct-17 12:54:14;61.50002;69.99998;86;30.142258973;0;25;
1507294464;06-Oct-17 12:54:24;61.50002;69.99998;86;30.142258973;0;25;
1507294474;06-Oct-17 12:54:34;61.50002;69.99998;86;30.142258973;0;25;
1507294484;06-Oct-17 12:54:44;61.50002;69.99998;86;30.142258973;0;25;
1507294494;06-Oct-17 12:54:54;61.50002;69.99998;86;30.142258973;0;25;
1507294504;06-Oct-17 12:55:04;61.59992;69.99998;86;30.141077769;0;25;
1507294514;06-Oct-17 12:55:14;61.59992;69.99998;86;30.141077769;0;25;
1507294524;06-Oct-17 12:55:24;61.59992;69.99998;86;30.141077769;0;25;
1507294534;06-Oct-17 12:55:34;61.59992;69.99998;86;30.141077769;0;25;
1507294544;06-Oct-17 12:55:44;61.59992;69.99998;86;30.141077769;0;25;
1507294554;06-Oct-17 12:55:54;61.7;69.99998;86;30.141077769;0;25;
1507294564;06-Oct-17 12:56:04;61.7;69.99998;86;30.141077769;0;25;
1507294574;06-Oct-17 12:56:14;61.7;69.99998;86;30.141077769;0;25;
1507294584;06-Oct-17 12:56:24;61.7;69.99998;86;30.141077769;0;25;
1507294594;06-Oct-17 12:56:34;61.80008;69.99998;86;30.141077769;0;25;
1507294604;06-Oct-17 12:56:44;61.7;69.99998;86;30.141077769;0;25;
1507294614;06-Oct-17 12:56:54;61.80008;69.99998;86;30.141077769;0;25;
1507294624;06-Oct-17 12:57:04;61.80008;69.99998;86;30.141077769;0;25;
1507294644;06-Oct-17 12:57:24;61.89998;69.99998;86;30.141077769;0;25;
1507294654;06-Oct-17 12:57:34;61.89998;71.00006;86;30.141077769;0;25;
1507294664;06-Oct-17 12:57:44;61.89998;71.00006;86;30.141077769;0;25;
1507294674;06-Oct-17 12:57:54;62.00006;71.00006;86;30.141077769;0;25;
1507294684;06-Oct-17 12:58:04;62.00006;71.00006;85;30.141077769;0;25;
1507294694;06-Oct-17 12:58:14;62.00006;71.00006;85;30.141077769;0;25;
1507294704;06-Oct-17 12:58:24;62.09996;71.00006;85;30.141077769;0;25;
1507294714;06-Oct-17 12:58:34;62.09996;71.00006;85;30.141077769;0;25;
1507294724;06-Oct-17 12:58:44;62.09996;71.00006;85;30.141077769;0;25;
1507294735;06-Oct-17 12:58:55;62.20004;71.00006;85;30.141077769;0;25;
1507294745;06-Oct-17 12:59:05;62.20004;71.00006;85;30.141077769;0;25;
1507294755;06-Oct-17 12:59:15;62.20004;71.00006;85;30.141077769;0;25;
1507294765;06-Oct-17 12:59:25;62.20004;71.00006;85;30.141077769;0;25;
1507294775;06-Oct-17 12:59:35;62.20004;71.00006;85;30.141077769;0;25;
1507294785;06-Oct-17 12:59:45;62.29994;71.00006;85;30.141077769;0;25;
1507294795;06-Oct-17 12:59:55;62.29994;71.00006;85;30.141077769;0;25;
